Orbital Elements at Epoch 2459200.5 (2020-Dec-17.0) TDB
Reference: JPL 23 (heliocentric ecliptic J2000)
Element | Value | Uncertainty (1-sigma) | Units |
e | .06961038192353615 | 5.1167e-08 | |
a | 3.094166990112102 | 2.7824e-08 | au |
q | 2.8787808441952 | 1.658e-07 | au |
i | 9.080818736265298 | 6.6559e-06 | deg |
node | 240.0050094202315 | 3.298e-05 | deg |
peri | 27.0228058152805 | 5.9726e-05 | deg |
M | 17.59406518793694 | 4.7249e-05 | deg |
tp | 2459103.342183568184 (2020-Sep-10.84218357) | 0.00026131 | TDB |
period | 1987.989332870887 5.44 | 2.6815e-05 7.342e-08 | d yr |
n | .1810874907865417 | 2.4426e-09 | deg/d |
Q | 3.309553136029003 | 2.9761e-08 | au |
|
| | Orbit Determination Parameters
Additional Information
|